This is the latest recevied weather packets stored in our database for station/object KI5NXU. If no packets are shown the sender has not sent any weather packets the latest 10 day(s).
| Time | Temp. | Humidity | Pressure | Rain* | Wind** | Luminosity | Snow |
|---|---|---|---|---|---|---|---|
| 1777481149 | 15.56° C | 77% | 1016.6 hPa | 0 mm | - | 96 W/m² | - |
| 1777479936 | 15.56° C | 78% | 1016.4 hPa | 0 mm | - | 115 W/m² | - |
| 1777479331 | 15.56° C | 79% | 1016.6 hPa | 0 mm | - | 138 W/m² | - |
| 1777477514 | 15° C | 79% | 1016.3 hPa | 0 mm | - | 105 W/m² | - |
| 1777476907 | 15° C | 79% | 1016.2 hPa | 0 mm | - | 128 W/m² | - |
| 1777476301 | 15° C | 81% | 1016.8 hPa | 0 mm | - | 58 W/m² | - |
| 1777474174 | 14.44° C | 82% | 1016.1 hPa | 0 mm | - | 38 W/m² | - |
| 1777473265 | 14.44° C | 83% | 1016.1 hPa | 0 mm | - | 37 W/m² | - |
| 1777472354 | 14.44° C | 82% | 1016.4 hPa | 0 mm | - | 36 W/m² | - |
| 1777472052 | 14.44° C | 82% | 1016.4 hPa | 0 mm | - | 41 W/m² | - |
| 1777471747 | 14.44° C | 82% | 1016.4 hPa | 0 mm | - | 34 W/m² | - |
| 1777471140 | 14.44° C | 82% | 1016.4 hPa | 0 mm | - | 26 W/m² | - |
| 1777469926 | 15° C | 82% | 1015.7 hPa | 0 mm | - | 29 W/m² | - |
| 1777469317 | 15° C | 81% | 1015.5 hPa | 0 mm | - | 25 W/m² | - |
| 1777469013 | 15° C | 81% | 1015.6 hPa | 0 mm | - | 23 W/m² | - |
| 1777468708 | 15° C | 81% | 1015.5 hPa | 0 mm | - | 25 W/m² | - |
| 1777468405 | 15° C | 81% | 1015.4 hPa | 0 mm | - | 16 W/m² | - |
| 1777468101 | 15° C | 80% | 1015 hPa | 0 mm | - | 20 W/m² | - |
| 1777467797 | 15° C | 80% | 1015.1 hPa | 0 mm | - | 17 W/m² | - |
| 1777467493 | 15° C | 80% | 1014.9 hPa | 0 mm | - | 20 W/m² | - |
| 1777466886 | 15° C | 80% | 1014.4 hPa | 0 mm | - | 18 W/m² | - |
| 1777466279 | 15° C | 79% | 1014.6 hPa | 0 mm | - | 12 W/m² | - |
| 1777465976 | 15° C | 80% | 1014.3 hPa | 0 mm | - | 8 W/m² | - |
| 1777465672 | 15° C | 80% | 1014.3 hPa | 0 mm | - | 4 W/m² | - |
| 1777465368 | 15° C | 80% | 1014.5 hPa | 0 mm | - | 3 W/m² | - |
* Rain latest hour (hover to see other rain measurements)
** Current wind speed in m/s (hover to see current wind gust speed)